Regional Weather Roundup
Issued by NWS Cleveland, OH

Home | Current Version | Previous Version | Text Only | Print | Product List | Glossary Off
Versions: 1 2 3 4 5 6 7 8 9 10 11 12 13 14 15 16 17 18 19 20 21 22 23 24 25 26 27 28 29 30 31 32 33 34 35 36 37 38 39 40 41 42 43 44 45 46 47 48 49 50

000
ASUS41 KCLE 282310
RWRCLE
OHIO REGIONAL WEATHER ROUNDUP
NATIONAL WEATHER SERVICE WILMINGTON, OH
700 PM EDT THU MAY 28 2015

NOTE: "FAIR" INDICATES FEW OR NO CLOUDS BELOW 12,000 FEET WITH NO
SIGNIFICANT WEATHER AND/OR OBSTRUCTIONS TO VISIBILITY.

OHZ001>008-015>018-024>027-034-035-043-044-290000-
   NORTHWEST OHIO

CITY           SKY/WX    TMP DP  RH WIND       PRES   REMARKS
DEFIANCE       SUNNY     80  53  39 E10       30.17F
FINDLAY        SUNNY     81  58  45 E8        30.16F
TOLEDO EXPRESS SUNNY     76  53  44 NE13      30.19S
TOLEDO EXEC    SUNNY     73  55  53 NE8       30.20F
LIMA           MOSUNNY   79  60  52 SE9       30.16F
$$

OHZ009>014-019>023-028>033-038-089-290000-
   NORTHEAST OHIO

CITY           SKY/WX    TMP DP  RH WIND       PRES   REMARKS
CLE-HOPKINS    MOSUNNY   73  55  53 N9        30.23S
CLE-LAKEFRONT  SUNNY     67  59  75 NE7       30.21S
CUY CO. ARPT   SUNNY     79  55  44 SE7       30.22S
LORAIN-ELYRIA  SUNNY     75  57  53 E10       30.21F
ASHTABULA      SUNNY     74  54  49 VRB5      30.24S
AKRON-CANTON   MOSUNNY   78  55  44 E8        30.22S
WOOSTER        SUNNY     77  58  51 SE9       30.21F
MANSFIELD      MOSUNNY   77  58  51 E7        30.21F
YOUNGSTOWN     MOSUNNY   77  53  43 VRB3      30.23S
$$

OHZ042-051>053-060>062-070>072-077>081-290000-
  SOUTHWEST OHIO

CITY           SKY/WX    TMP DP  RH WIND       PRES   REMARKS
CINC-COVINGTON MOSUNNY   80  63  55 SE7       30.15F
CINC-LUNKEN    SUNNY     80  64  58 SE7       30.14F
HAMILTON       CLOUDY    82  64  54 E7        30.14F
DAYTON         MOSUNNY   82  60  47 S5        30.15F
WRIGHT-PAT AFB SUNNY     82  60  47 S6        30.14F
DAYTON GENERAL SUNNY     81  62  52 SE9       30.14F
WILMINGTON     SUNNY     81  59  47 S8        30.15F
$$

OHZ036-037-039>041-045>050-054>059-063>069-073>076-082>088-290000-
  CENTRAL AND SOUTHEAST OHIO

CITY           SKY/WX    TMP DP  RH WIND       PRES   REMARKS
COLUMBUS       MOSUNNY   80  60  50 E5        30.16F
OSU AIRPORT    MOSUNNY   79  60  52 E8        30.16F
BOLTON FIELD   SUNNY     81  63  54 E10       30.17F
RICKENBACK AFB CLOUDY    80  64  57 E7        30.16F
NEWARK         SUNNY     81  61  50 VRB5      30.17F
MARION         MOSUNNY   79  57  46 E8        30.18F
LANCASTER      MOSUNNY   80  64  58 E3        30.17F
ZANESVILLE     SUNNY     80  59  48 E5        30.18F
NEW PHILLY     SUNNY     82  59  45 E6        30.20F
$$



USA.gov is the U.S. government's official web portal to all federal, state and local government web resources and services.